Find Starlink 32367

NORAD ID: 60919 Int'l Des: 2024-154 Owner: SPXS Country: US Constellation: starlink operational
LEOCIRCULAR

現在のビュー

3D地球を読み込み中...

About Starlink 32367

Starlink 32367 (NORAD 60919) is a starlink constellation satellite (v2 mini) launched Aug 31, 2024 by SPXS of US. It operates in LEO, CIRCULAR orbit with a mass of 730.00 kg.

Starlink 32367について

説明を読み込み中...

次回通過

Passes for default location (London). Set your location on the main map for personalized predictions.

高度履歴

Loading altitude history...

軌道要素

1 60919U 24154S 26168.32112536 .00019122 00000-0 65786-3 0 9997
2 60919 53.1590 180.7355 0001661 89.9644 270.1547 15.30111497101597
Epoch: Jun 17, 2026 • Age: 9 hours

現在のステータス

高度 481.8 km
速度 7.62 km/s
衛星直下点 -21.01°S, 136.91°W
打ち上げ日 Aug 31, 2024
運用期間 1.7 years
タイプ internet

技術仕様

分類 Payload
質量 730.00 kg
乾燥質量 700.00 kg
総質量 730.00 kg
長さ 0.30 m
直径 4.10 m
スパン 29.00 m
形状 Box + pan
製造者 SPXS
バスタイプ Starlink V2M
フェーズステータス In Orbit
所有者/国 SPXS/US

Most Searched